Wind_Speed
36 38 39 41 41 40 40 39 39 38 36 34 32 28 25 24 23 23 23 21 23 22 21 23 23 24 23 24 23 22 22 20
38 39 40 43 43 43 42 41 39 39 35 34 31 28 26 26 24 24 24 25 25 24 24 24 25 28 27 27 26 25 25 24
37 39 39 42 42 42 40 37 37 36 34 33 30 30 28 27 27 27 26 26 26 26 26 27 27 25 25 30 30 31 29 28
34 34 34 34 29 28 32 33 36 36 33 32 31 28 25 24 24 26 27 27 29 30 31 30 30 30 30 30 31 33 33 31
34 34 32 32 29 28 30 31 29 28 28 26 26 25 24 23 23 23 25 27 27 29 30 31 32 34 36 34 31 33 34 33
36 33 31 29 28 27 26 26 25 25 24 24 24 25 26 26 26 26 26 28 29 31 33 33 32 31 35 38 37 36 36 33
33 32 30 29 27 27 27 27 28 29 30 31 31 31 32 31 30 30 30 33 36 36 36 38 39 38 34 37 37 38 39 33
35 34 34 33 34 34 34 34 35 36 37 37 38 38 40 40 40 38 37 38 39 39 41 41 43 43 42 40 38 37 38 38
41 40 40 40 41 41 40 41 41 43 43 44 44 44 45 45 45 45 46 46 46 45 46 46 44 46 47 45 44 40 40 39
46 48 48 47 48 48 47 47 48 49 49 50 50 50 51 50 50 50 51 51 50 49 50 48 51 51 50 50 50 49 44 41
48 50 51 52 53 54 54 53 53 53 54 55 55 56 57 56 55 54 54 55 54 53 51 51 51 55 53 51 52 53 52 47
54 55 56 57 58 58 59 60 61 61 61 62 62 62 61 61 60 59 58 56 55 55 55 56 57 58 58 56 53 54 55 56
58 59 61 62 63 64 65 66 67 67 68 67 67 66 66 64 63 62 59 57 55 57 58 58 61 64 63 59 57 55 55 56
62 63 65 67 67 66 66 67 66 66 64 64 64 64 62 62 61 60 59 59 56 58 62 63 62 63 64 62 59 57 55 56
63 63 62 63 64 64 64 63 64 63 62 61 60 60 59 58 59 59 59 60 60 63 65 63 61 62 65 64 61 58 58 57
58 58 58 58 58 59 59 60 59 58 58 59 59 59 59 59 61 65 66 64 61 60 60 59 60 61 62 63 60 58 57 58
54 55 56 56 57 57 56 57 57 57 59 59 58 59 60 62 60 59 59 58 55 53 54 57 58 56 59 60 59 58 59 59
52 53 54 54 54 55 54 53 52 53 56 57 56 56 54 53 52 52 51 48 47 47 45 46 45 45 44 47 52 53 52 54
45 46 46 48 48 48 48 48 49 49 48 48 49 49 49 46 44 42 40 39 40 38 39 41 45 42 42 41 44 47 49 50
37 39 40 41 42 42 42 42 41 40 42 42 42 43 41 38 35 36 37 34 34 29 31 32 33 39 44 46 45 51 53 53
Wind_Direction
273 275 276 279 280 282 285 290 293 295 296 293 292 289 288 286 283 275 275 276 283 279 275 275 275 273 274 278 281 284 285 282
272 276 278 280 281 282 283 285 288 291 295 292 293 295 293 292 287 283 280 281 279 278 275 274 276 273 272 273 274 276 279 280
273 275 278 281 285 282 280 283 286 290 293 292 292 291 289 287 286 286 287 284 281 281 279 276 273 277 267 269 269 272 272 276
266 271 277 281 286 286 282 283 288 290 288 289 291 290 292 290 289 290 289 286 285 285 281 277 276 273 267 267 266 267 269 272
258 264 270 278 282 282 281 282 283 286 286 286 286 288 289 291 291 290 291 291 290 286 286 285 283 273 272 267 264 265 265 266
261 267 270 274 277 279 279 281 281 279 280 280 282 283 287 289 292 293 293 293 292 291 289 288 285 280 278 265 266 266 269 258
266 268 267 269 273 276 277 278 280 281 282 282 280 279 278 279 279 283 288 293 295 292 289 287 285 282 276 280 266 264 265 266
266 266 265 270 274 276 279 281 283 284 284 285 287 287 287 285 283 282 284 286 288 289 287 284 282 281 277 274 273 274 267 265
270 271 271 272 274 275 278 280 282 282 284 284 285 286 287 286 284 283 283 284 285 286 288 283 280 278 279 274 269 267 270 266
273 274 275 276 276 277 278 278 279 280 281 281 284 286 286 285 283 281 279 280 280 278 281 283 279 277 274 273 270 265 261 263
276 276 277 277 277 278 279 279 278 279 279 281 283 284 285 284 282 280 279 279 280 281 280 282 277 273 274 269 268 266 260 258
275 276 277 278 278 279 281 282 283 283 283 284 284 284 284 282 281 279 279 278 279 280 279 281 281 275 271 269 263 260 259 258
277 278 278 278 279 280 281 282 282 283 283 283 284 283 283 282 280 279 279 279 281 276 276 277 274 271 271 267 263 259 256 256
277 277 277 278 280 280 280 281 281 282 281 281 281 280 280 279 278 277 276 278 278 279 275 273 272 271 270 268 264 259 256 253
277 277 277 277 279 280 281 282 281 281 280 279 277 276 274 273 273 273 272 271 270 271 273 274 273 271 269 267 262 260 254 252
278 279 279 279 279 279 279 278 278 277 277 276 275 275 275 274 273 273 273 274 276 274 273 272 271 271 267 264 261 259 256 251
278 278 277 277 277 277 276 276 275 274 276 276 276 276 276 280 284 283 281 280 276 272 270 267 264 261 257 256 257 255 253 252
279 279 279 279 278 279 280 281 282 284 284 286 288 287 288 287 284 281 277 273 272 274 270 267 265 265 261 261 257 254 251 249
283 282 282 282 282 283 284 287 287 287 288 287 287 286 286 287 283 277 276 275 272 273 274 269 260 259 261 262 259 256 253 253
282 282 283 283 284 285 285 285 286 287 286 287 287 289 292 290 283 282 279 277 278 276 285 274 270 262 265 266 268 256 254 253
Height
5826 5826 5825 5823 5822 5821 5821 5820 5819 5818 5818 5818 5818 5817 5817 5817 5817 5817 5817 5817 5816 5817 5817 5816 5816 5817 5816 5816 5816 5817 5817 5818
5821 5821 5819 5817 5816 5816 5815 5814 5814 5814 5813 5812 5812 5813 5812 5812 5811 5812 5811 5811 5811 5811 5812 5811 5812 5812 5812 5812 5811 5812 5812 5813
5816 5815 5813 5812 5811 5810 5809 5809 5808 5807 5807 5806 5807 5807 5807 5807 5805 5806 5807 5807 5807 5806 5807 5806 5806 5807 5806 5806 5807 5806 5807 5807
5809 5809 5809 5807 5805 5804 5804 5803 5802 5802 5802 5801 5801 5801 5800 5801 5800 5800 5800 5801 5801 5800 5800 5801 5801 5800 5800 5800 5801 5800 5802 5802
5804 5803 5802 5802 5800 5799 5798 5798 5797 5797 5796 5795 5795 5795 5794 5794 5794 5794 5794 5794 5794 5793 5794 5795 5796 5796 5793 5793 5794 5794 5795 5795
5799 5798 5797 5797 5796 5795 5794 5793 5793 5792 5791 5791 5791 5790 5790 5788 5788 5788 5788 5788 5788 5787 5787 5787 5787 5787 5787 5786 5787 5788 5787 5787
5793 5793 5791 5791 5789 5789 5788 5788 5787 5786 5785 5785 5784 5783 5783 5783 5782 5781 5780 5779 5779 5780 5780 5779 5779 5778 5779 5778 5777 5779 5780 5780
5786 5786 5785 5783 5782 5782 5781 5780 5779 5777 5777 5776 5775 5774 5774 5773 5772 5771 5771 5771 5771 5771 5770 5770 5770 5770 5770 5771 5771 5770 5771 5772
5779 5778 5777 5775 5774 5773 5772 5771 5770 5769 5768 5766 5765 5764 5763 5763 5762 5761 5759 5759 5759 5758 5758 5759 5759 5759 5760 5761 5761 5763 5763 5762
5769 5769 5768 5765 5764 5764 5763 5762 5760 5759 5757 5756 5754 5754 5752 5752 5751 5749 5748 5748 5747 5747 5747 5747 5746 5748 5747 5749 5750 5752 5754 5756
5758 5758 5756 5754 5753 5752 5751 5750 5749 5747 5745 5744 5743 5741 5740 5740 5738 5737 5736 5735 5734 5733 5732 5732 5733 5734 5735 5736 5738 5740 5742 5744
5747 5746 5745 5743 5741 5739 5738 5736 5734 5732 5731 5730 5728 5727 5726 5726 5724 5724 5723 5722 5720 5718 5717 5716 5716 5716 5718 5720 5722 5725 5728 5731
5734 5734 5732 5731 5729 5727 5724 5722 5720 5718 5716 5714 5713 5712 5711 5711 5709 5708 5707 5706 5705 5702 5701 5701 5701 5699 5700 5703 5706 5710 5714 5717
5720 5719 5718 5717 5715 5713 5711 5708 5706 5704 5702 5699 5698 5696 5695 5694 5693 5692 5691 5690 5688 5687 5685 5683 5685 5683 5683 5685 5690 5695 5698 5701
5706 5705 5703 5701 5700 5699 5696 5694 5692 5690 5687 5685 5682 5680 5679 5678 5677 5676 5674 5672 5671 5669 5667 5666 5667 5667 5665 5667 5671 5676 5679 5684
5692 5691 5689 5688 5685 5683 5681 5679 5676 5674 5672 5670 5667 5665 5663 5661 5659 5657 5655 5653 5652 5650 5649 5648 5648 5651 5648 5650 5653 5657 5662 5668
5678 5677 5675 5674 5672 5669 5667 5665 5662 5659 5657 5654 5652 5649 5647 5645 5643 5640 5638 5636 5635 5633 5631 5630 5630 5631 5632 5632 5634 5639 5644 5649
5665 5664 5663 5660 5659 5656 5654 5651 5649 5646 5643 5640 5637 5635 5633 5630 5628 5625 5622 5620 5618 5617 5614 5613 5613 5614 5617 5617 5619 5622 5627 5630
5654 5653 5651 5649 5647 5645 5643 5640 5637 5634 5631 5627 5625 5622 5618 5615 5613 5610 5608 5606 5606 5603 5601 5600 5601 5602 5604 5606 5607 5609 5612 5616
5645 5643 5641 5639 5637 5635 5632 5629 5626 5623 5619 5616 5613 5610 5606 5603 5600 5599 5597 5596 5594 5591 5591 5589 5590 5591 5591 5592 5594 5596 5598 5602